[[{"header":{"parameterUnit":"m.s-1","parameterCategory":1,"la1":30.2991,"la2":30.254,"lo1":-89.0895,"lo2":-89.0444,"dy":0.0017,"dx":0.0017,"nx":28,"ny":28,"refTime":"2024-08-09T09:00:00:Z","depth":0,"parameterNumber":2,"parameterNumberName":"U-component_of_WINDS"},"data":[0,0,0,0,0,0,0,0,0,0,0,0,0,0,0,0,0,0,0,0,0,0,0,0,0,0,0,0,0,0,0,0,0,0,0,0,0,0,0,0,0,0,0,0,0,0,0,0,0,0,0,0,0,0,0,0,0,0,0.6408,0.6408,0,0.6429,0.6429,0.643,0.6424,0.6424,0.6423,0.6423,0.6446,0.6447,0.6448,0,0,0,0,0,0,0,0,0,0,0,0,0,0.6366,0.6367,0.6408,0.6408,0.6408,0.6429,0.6429,0.643,0.6424,0.6424,0.6423,0.6423,0.6446,0.6447,0.6448,0,0,0,0,0,0,0,0,0,0,0,0,0,0.6385,0.6367,0.6408,0.6408,0.6408,0.6429,0.6429,0.643,0.6424,0.6424,0.6423,0.6423,0.6446,0.6447,0.6449,0.6471,0,0,0.6453,0.6454,0,0,0,0,0,0,0,0,0.6384,0.6387,0.6408,0.6408,0.6409,0.6423,0.6423,0.6443,0.6425,0.6418,0.6423,0.6422,0.6439,0.6441,0.6447,0.6472,0.6473,0.6453,0.6454,0.6455,0.6455,0,0,0,0,0,0,0,0.6383,0.6386,0.6416,0.6408,0.6409,0.6408,0.641,0.6427,0.6432,0.6419,0.6419,0.6421,0.6439,0.6445,0.6447,0.6473,0.6453,0.6455,0.6456,0.6456,0.652,0.6521,0,0,0,0,0,0,0.6381,0.6385,0.6416,0.6417,0.6395,0.641,0.6412,0.6419,0.6432,0.6433,0.6422,0.6421,0.6443,0.6445,0.6448,0.6477,0.6455,0.6456,0.6457,0.6519,0.652,0.6521,0,0,0,0,0,0,0.638,0.6384,0.6415,0.6401,0.6405,0.6411,0.6419,0.642,0.6426,0.6434,0.6435,0.6426,0.6443,0.6446,0.6466,0.6477,0.6457,0.6458,0.6518,0.652,0.6521,0.6533,0,0,0,0,0,0,0.6379,0.6383,0.6391,0.6401,0.6406,0.6431,0.642,0.6421,0.6428,0.6427,0.6439,0.644,0.6442,0.6463,0.6467,0.6479,0.646,0.6517,0.6519,0.652,0.6531,0.6534,0.6537,0,0,0,0,0,0.6377,0.6393,0.6391,0.6395,0.6415,0.6432,0.6434,0.6436,0.6429,0.6438,0.6443,0.644,0.6475,0.6465,0.6469,0.6482,0.6517,0.6518,0.652,0.653,0.6534,0.6537,0,0,0,0,0,0,0.6385,0.6395,0.6393,0.6412,0.6421,0.6431,0.6441,0.6439,0.6451,0.645,0.6452,0.6454,0.6475,0.648,0.6469,0.6506,0.6495,0.6498,0.6501,0.6505,0.6507,0.6506,0.6461,0,0,0,0,0,0.6389,0.64,0.6409,0.6425,0.643,0.6435,0.6442,0.6443,0.6452,0.6456,0.6463,0.6473,0.6487,0.6496,0.6509,0.6532,0.6536,0.6543,0.6545,0.6548,0.655,0.6566,0.657,0.6527,0.6527,0.6527,0,0,0.6397,0.6404,0.6411,0.6427,0.6434,0.6448,0.6438,0.6452,0.6463,0.6459,0.6478,0.6484,0.6495,0.6517,0.6527,0.6523,0.6563,0.655,0.6551,0.6553,0.6568,0.6572,0.6576,0.6528,0.6528,0.6528,0,0,0.6419,0.6424,0.644,0.6447,0.6458,0.6462,0.6466,0.6476,0.6479,0.6499,0.6497,0.651,0.6532,0.6542,0.6549,0.6577,0.6575,0.6581,0.6595,0.661,0.6614,0.6617,0.6629,0.6633,0.6583,0.6583,0.6584,0,0.6428,0.6447,0.6448,0.6463,0.6471,0.6468,0.6485,0.6492,0.6507,0.6513,0.6507,0.6537,0.6545,0.657,0.6577,0.6583,0.6589,0.658,0.6613,0.6616,0.6619,0.6631,0.6635,0.6584,0.6584,0.6584,0.6584,0,0.6459,0.6473,0.6484,0.6499,0.6508,0.6524,0.6528,0.6538,0.6538,0.6543,0.6564,0.6573,0.6588,0.6594,0.6594,0.6621,0.6618,0.6612,0.6602,0.6624,0.6635,0.6639,0.6585,0.6585,0.6585,0.6585,0,0,0.6486,0.6502,0.6506,0.6514,0.6526,0.6538,0.6554,0.6569,0.6578,0.6589,0.6604,0.6625,0.662,0.6629,0.663,0.6643,0.6668,0.6637,0.6637,0.6644,0.67,0.6706,0.671,0.6666,0.6667,0.6668,0.67,0,0.6511,0.6539,0.6541,0.6568,0.6582,0.658,0.6594,0.6605,0.661,0.6623,0.6629,0.6645,0.6637,0.6642,0.6655,0.6662,0.6679,0.666,0.6683,0.6683,0.6681,0.6716,0.6721,0.6751,0.6704,0.6705,0.6705,0,0.6543,0.6555,0.6583,0.6596,0.6602,0.6615,0.663,0.6643,0.6655,0.6658,0.6669,0.6669,0.6688,0.6676,0.6704,0.669,0.67,0.6705,0.6706,0.671,0.6697,0.6722,0.676,0.6766,0.6712,0.6711,0.6711,0,0.6563,0.6586,0.6606,0.6612,0.6627,0.6637,0.6643,0.6655,0.6665,0.6678,0.6685,0.6701,0.671,0.6723,0.6728,0.6719,0.6756,0.6745,0.6761,0.6761,0.677,0.677,0.6812,0.6773,0.6773,0.6773,0.6773,0,0.6591,0.6608,0.6615,0.6628,0.6648,0.6651,0.6672,0.6678,0.6689,0.6704,0.6703,0.6717,0.6722,0.6738,0.6742,0.6766,0.6769,0.6774,0.6775,0.6775,0.6775,0.6782,0.6781,0.6774,0.6774,0.6774,0.6774,0,0.6616,0.6621,0.6644,0.6656,0.666,0.6674,0.6686,0.6699,0.6704,0.6724,0.6728,0.6737,0.6756,0.6762,0.6785,0.6788,0.6816,0.6814,0.6812,0.6813,0.683,0.6829,0.688,0.6888,0.6842,0.6842,0.6843,0,0.6635,0.6648,0.6663,0.6673,0.668,0.6695,0.6706,0.671,0.6721,0.6737,0.6749,0.6767,0.6783,0.6813,0.6822,0.684,0.6841,0.6857,0.6843,0.6844,0.6844,0.6844,0.6846,0.686,0.6861,0.6861,0.6862,0,0.6668,0.667,0.6684,0.67,0.6713,0.6726,0.6738,0.6747,0.6753,0.6765,0.6785,0.6796,0.682,0.684,0.6858,0.6867,0.6866,0.6866,0.6871,0.6872,0.6871,0.6874,0.6821,0.6865,0.6865,0.6864,0.6864,0.6864,0.6691,0.6704,0.6717,0.6734,0.6744,0.6756,0.677,0.6777,0.6793,0.6813,0.6814,0.6836,0.685,0.6875,0.6885,0.6903,0.6898,0.6905,0.6908,0.691,0.6912,0.6867,0.6906,0.6906,0.6906,0.6906,0.6906,0,0.6726,0.6735,0.675,0.6768,0.6782,0.6779,0.6793,0.6806,0.6824,0.6838,0.6853,0.6877,0.6896,0.6907,0.6927,0.694,0.694,0.6945,0.6945,0.6948,0.6914,0.6908,0.6944,0.6944,0.6944,0.6944,0.6944,0.6944,0.6746,0.6769,0.6773,0.6801,0.681,0.683,0.6839,0.6851,0.6862,0.6888,0.6905,0.6912,0.6925,0.6946,0.6965,0.6968,0.6976,0.6982,0.6985,0.6953,0.695,0.6946,0.6941,0.6983,0.6983,0.7017,0.7017,0.7018]},{"header":{"parameterUnit":"m.s-1","parameterCategory":1,"la1":30.2991,"la2":30.254,"lo1":-89.0895,"lo2":-89.0444,"dy":0.0017,"dx":0.0017,"nx":28,"ny":28,"refTime":"2024-08-09T09:00:00:Z","depth":0,"parameterNumber":3,"parameterNumberName":"V-component_of_WINDS"},"data":[0,0,0,0,0,0,0,0,0,0,0,0,0,0,0,0,0,0,0,0,0,0,0,0,0,0,0,0,0,0,0,0,0,0,0,0,0,0,0,0,0,0,0,0,0,0,0,0,0,0,0,0,0,0,0,0,0,0,-1.9564,-1.9564,0,-1.9537,-1.9536,-1.9536,-1.9548,-1.9548,-1.9549,-1.955,-1.9519,-1.9518,-1.9517,0,0,0,0,0,0,0,0,0,0,0,0,0,-1.9625,-1.9624,-1.9564,-1.9564,-1.9563,-1.9537,-1.9536,-1.9536,-1.9548,-1.9548,-1.9549,-1.955,-1.952,-1.9518,-1.9516,0,0,0,0,0,0,0,0,0,0,0,0,0,-1.9598,-1.9624,-1.9564,-1.9566,-1.9566,-1.9537,-1.9536,-1.9536,-1.9547,-1.9548,-1.9549,-1.955,-1.952,-1.9518,-1.9516,-1.9483,0,0,-1.951,-1.9509,0,0,0,0,0,0,0,0,-1.96,-1.9596,-1.9566,-1.9566,-1.9566,-1.9547,-1.9547,-1.9518,-1.9547,-1.9554,-1.955,-1.9551,-1.9527,-1.9525,-1.9517,-1.9481,-1.948,-1.9509,-1.9508,-1.9507,-1.9507,0,0,0,0,0,0,0,-1.9602,-1.9597,-1.9553,-1.9565,-1.9565,-1.9568,-1.9565,-1.9542,-1.9535,-1.9554,-1.9555,-1.9551,-1.9528,-1.9519,-1.9517,-1.948,-1.951,-1.9508,-1.9506,-1.9505,-1.9418,-1.9417,0,0,0,0,0,0,-1.9604,-1.9599,-1.9554,-1.9552,-1.9586,-1.9566,-1.9563,-1.9552,-1.9536,-1.9534,-1.955,-1.9552,-1.9523,-1.9519,-1.9516,-1.9478,-1.9507,-1.9505,-1.9504,-1.9419,-1.9418,-1.9417,0,0,0,0,0,0,-1.9605,-1.96,-1.9555,-1.9576,-1.957,-1.9564,-1.9551,-1.9551,-1.9543,-1.9533,-1.9532,-1.9543,-1.9523,-1.9519,-1.9492,-1.9477,-1.9504,-1.9502,-1.942,-1.9419,-1.9417,-1.9401,0,0,0,0,0,0,-1.9607,-1.96,-1.9587,-1.9575,-1.9569,-1.9532,-1.955,-1.9549,-1.9539,-1.9541,-1.9526,-1.9525,-1.9524,-1.9495,-1.949,-1.9475,-1.9501,-1.9422,-1.942,-1.9418,-1.9403,-1.9399,-1.9396,0,0,0,0,0,-1.9609,-1.9583,-1.9587,-1.9581,-1.9553,-1.9531,-1.9527,-1.9527,-1.9538,-1.9525,-1.952,-1.9525,-1.9479,-1.9492,-1.9486,-1.947,-1.9423,-1.942,-1.9418,-1.9404,-1.94,-1.9396,0,0,0,0,0,0,-1.9591,-1.9581,-1.9585,-1.9554,-1.9544,-1.9533,-1.9517,-1.9521,-1.9507,-1.9509,-1.9508,-1.9505,-1.9478,-1.9471,-1.9485,-1.9439,-1.9453,-1.9449,-1.9444,-1.944,-1.9436,-1.9439,-1.9499,0,0,0,0,0,-1.9584,-1.9567,-1.9559,-1.9532,-1.9527,-1.9523,-1.9513,-1.9514,-1.9502,-1.9497,-1.949,-1.9478,-1.9461,-1.945,-1.9433,-1.9402,-1.94,-1.9388,-1.9384,-1.9381,-1.9379,-1.9364,-1.9359,-1.9409,-1.9409,-1.9409,0,0,-1.9568,-1.9561,-1.9549,-1.9528,-1.952,-1.9503,-1.9518,-1.9499,-1.9486,-1.9494,-1.9469,-1.9463,-1.945,-1.9421,-1.9408,-1.9415,-1.9364,-1.9378,-1.9376,-1.9375,-1.9361,-1.9356,-1.9352,-1.9408,-1.9408,-1.9408,0,0,-1.9531,-1.9523,-1.9501,-1.9494,-1.9482,-1.948,-1.9474,-1.9463,-1.946,-1.9435,-1.9442,-1.9427,-1.9397,-1.9388,-1.938,-1.9342,-1.9348,-1.9337,-1.9319,-1.9304,-1.93,-1.9297,-1.9285,-1.9281,-1.9334,-1.9334,-1.9334,0,-1.9513,-1.9488,-1.9489,-1.947,-1.9462,-1.9469,-1.9448,-1.944,-1.9423,-1.9417,-1.9425,-1.939,-1.9381,-1.9352,-1.9343,-1.9335,-1.933,-1.9339,-1.9301,-1.9297,-1.9294,-1.9283,-1.9279,-1.9333,-1.9333,-1.9333,-1.9333,0,-1.9467,-1.945,-1.9434,-1.9419,-1.9408,-1.9388,-1.9387,-1.9376,-1.9378,-1.9375,-1.9351,-1.9342,-1.9325,-1.9318,-1.9319,-1.9289,-1.9294,-1.9301,-1.9315,-1.9288,-1.9278,-1.9274,-1.9331,-1.9332,-1.9332,-1.9332,0,0,-1.9417,-1.9406,-1.94,-1.9395,-1.9383,-1.937,-1.935,-1.9335,-1.9327,-1.9315,-1.93,-1.9276,-1.9283,-1.9274,-1.9274,-1.9261,-1.9235,-1.9271,-1.927,-1.9266,-1.9204,-1.92,-1.9195,-1.9239,-1.9238,-1.9237,-1.9206,0,-1.9381,-1.9348,-1.935,-1.932,-1.9305,-1.9313,-1.9296,-1.9288,-1.9285,-1.9272,-1.9269,-1.9253,-1.9263,-1.9258,-1.9245,-1.9241,-1.9223,-1.9243,-1.9225,-1.9224,-1.9229,-1.9189,-1.9184,-1.9155,-1.9202,-1.9201,-1.92,0,-1.9334,-1.9323,-1.9291,-1.9285,-1.9279,-1.9264,-1.9252,-1.9239,-1.9229,-1.9229,-1.9219,-1.9223,-1.9204,-1.9219,-1.9193,-1.9207,-1.92,-1.9197,-1.9196,-1.9195,-1.9211,-1.9189,-1.9145,-1.9141,-1.9194,-1.9194,-1.9195,0,-1.9303,-1.928,-1.9259,-1.9254,-1.9245,-1.9235,-1.9231,-1.9223,-1.9215,-1.9203,-1.9198,-1.9185,-1.9178,-1.9167,-1.9167,-1.9177,-1.9142,-1.9156,-1.9142,-1.9142,-1.9135,-1.9135,-1.9091,-1.9128,-1.9128,-1.9128,-1.9128,0,-1.9263,-1.9244,-1.9246,-1.9233,-1.9212,-1.9215,-1.9194,-1.9191,-1.9184,-1.9171,-1.9177,-1.9164,-1.9164,-1.9152,-1.9152,-1.9132,-1.9128,-1.9127,-1.9128,-1.9128,-1.9128,-1.9124,-1.9126,-1.9127,-1.9127,-1.9127,-1.9127,0,-1.9226,-1.9226,-1.9204,-1.9198,-1.9197,-1.9182,-1.9177,-1.9165,-1.9164,-1.9147,-1.9143,-1.9141,-1.9127,-1.9126,-1.9108,-1.9109,-1.9086,-1.9087,-1.9089,-1.909,-1.9076,-1.9078,-1.9028,-1.9023,-1.9062,-1.9062,-1.9061,0,-1.9201,-1.9187,-1.918,-1.9173,-1.9169,-1.9156,-1.9148,-1.915,-1.9142,-1.9132,-1.9122,-1.9109,-1.9098,-1.9075,-1.9072,-1.9059,-1.9062,-1.9045,-1.906,-1.9061,-1.9064,-1.9065,-1.9065,-1.9043,-1.9042,-1.9042,-1.9041,0,-1.9157,-1.9159,-1.9148,-1.9138,-1.9129,-1.9121,-1.9113,-1.9106,-1.9108,-1.9098,-1.9085,-1.9077,-1.9061,-1.9048,-1.9037,-1.9032,-1.9038,-1.9037,-1.9033,-1.9034,-1.9036,-1.9036,-1.9083,-1.9038,-1.9039,-1.9039,-1.9039,-1.9039,-1.9126,-1.9115,-1.911,-1.9098,-1.9093,-1.9087,-1.9076,-1.9075,-1.9064,-1.9052,-1.9054,-1.9039,-1.9032,-1.9018,-1.9012,-1.9001,-1.9007,-1.9001,-1.9,-1.8999,-1.8998,-1.9037,-1.8999,-1.8999,-1.8999,-1.8999,-1.8999,0,-1.9085,-1.9082,-1.9072,-1.9062,-1.9054,-1.906,-1.9053,-1.9045,-1.9033,-1.9026,-1.9017,-1.9002,-1.899,-1.8987,-1.8976,-1.8968,-1.897,-1.8965,-1.8966,-1.8965,-1.8993,-1.8998,-1.8963,-1.8963,-1.8963,-1.8963,-1.8963,-1.8963,-1.9062,-1.9045,-1.9046,-1.9026,-1.9024,-1.9011,-1.9006,-1.9001,-1.8996,-1.898,-1.8971,-1.8969,-1.8965,-1.8953,-1.8943,-1.8943,-1.8939,-1.8933,-1.8933,-1.8959,-1.8963,-1.8966,-1.8971,-1.8932,-1.8932,-1.8907,-1.8907,-1.8907]}]]